Location: D�derode
(51.8092°N, 10.1065°E)
Time: 06:42:23
(UTC+00:00)

NOSS 0 Rocket - Pass Details

Date: 01 December 2020
Orbit: 937 x 952 km, 70.0° (Epoch: 23 January)

Event Time Altitude Azimuth Distance (km) Brightness Sun altitude
Rises 15:48:20 0° 214° (SW) 3,616 8.3 -5.5°
Reaches altitude 10° 15:50:52 10° 216° (SW) 2,674 7.5 -5.9°
Maximum altitude 15:57:05 79° 303° (WNW) 973 4.1 -6.7°
Drops below altitude 10° 16:03:21 10° 31° (NNE) 2,682 5.8 -7.6°
Enters shadow 16:04:48 - 32° (NNE) 3,222 6.2 -7.8°
